Location: Dana
(41.8364°N, 106.7042°W)
Time: 05:11:01
(UTC+00:00)

Altair - All Passes

Search period start: 10 May 2026 00:00
Search period end: 20 May 2026 00:00
Orbit: 1501 x 1682 km, 47.2° (Epoch: 9 May)

Date Brightness Start Highest point End Pass type
(mag) Time Alt. Az. Time Alt. Az. Time Alt. Az.
10 May - 10:48:59 10° SSE 10:54:59 18° ESE 11:01:03 10° E visible
10 May - 12:48:31 10° SW 12:58:13 60° SE 13:08:08 10° ENE daylight
10 May - 14:52:58 10° WSW 15:03:06 74° NNW 15:13:18 10° ENE daylight
10 May - 16:58:49 10° WNW 17:08:59 67° N 17:19:01 10° E daylight
10 May - 19:04:08 10° WNW 19:14:18 77° SSW 19:24:11 10° SE daylight
10 May - 21:10:01 10° WNW 21:18:01 28° SW 21:25:49 10° S daylight
11 May - 10:24:37 10° SSE 10:29:53 16° ESE 10:35:13 10° E visible
11 May - 12:23:25 10° SW 12:32:59 56° SE 12:42:48 10° ENE daylight
11 May - 14:27:39 10° WSW 14:37:46 76° NNW 14:47:59 10° ENE daylight
11 May - 16:33:29 10° WNW 16:43:37 66° N 16:53:41 10° E daylight
11 May - 18:38:49 10° WNW 18:49:02 81° SSW 18:58:58 10° SE daylight
11 May - 20:44:33 10° WNW 20:52:52 31° SW 21:01:00 10° S daylight
12 May - 10:00:26 10° SSE 10:04:49 14° ESE 10:09:13 10° E visible
12 May - 11:58:20 10° SSW 12:07:47 52° SE 12:17:28 10° ENE daylight
12 May - 14:02:20 10° WSW 14:12:26 78° NNW 14:22:41 10° ENE daylight
12 May - 16:08:07 10° WNW 16:18:16 66° N 16:28:20 10° E daylight
12 May - 18:13:32 10° WNW 18:23:45 84° SSW 18:33:45 10° ESE daylight
12 May - 20:19:06 10° WNW 20:27:44 34° SW 20:36:10 10° S daylight
13 May - 09:36:38 10° SE 09:39:44 12° ESE 09:42:51 10° ESE visible
13 May - 11:33:18 10° SSW 11:42:35 48° SE 11:52:08 10° ENE daylight
13 May - 13:37:02 10° WSW 13:47:07 81° NNW 13:57:22 10° ENE daylight
13 May - 15:42:47 10° WNW 15:52:54 65° N 16:02:59 10° E daylight
13 May - 17:48:13 10° WNW 17:58:28 88° SSW 18:08:32 10° ESE daylight
13 May - 19:53:41 10° WNW 20:02:34 37° SW 20:11:16 10° SSE daylight
14 May - 11:08:17 10° SSW 11:17:24 45° SE 11:26:46 10° ENE visible
14 May - 13:11:45 10° WSW 13:21:48 84° NNW 13:32:03 10° ENE daylight
14 May - 15:17:26 10° W 15:27:31 65° N 15:37:38 10° E daylight
14 May - 17:22:54 10° WNW 17:33:11 89° NNE 17:43:15 10° ESE daylight
14 May - 19:28:17 10° WNW 19:37:24 40° SW 19:46:20 10° SSE daylight
15 May - 10:43:18 10° SSW 10:52:13 41° SE 11:01:24 10° ENE visible
15 May - 12:46:28 10° WSW 12:56:30 87° NNW 13:06:45 10° ENE daylight
15 May - 14:52:06 10° W 15:02:10 65° N 15:12:17 10° E daylight
15 May - 16:57:36 10° WNW 17:07:52 85° NNE 17:17:59 10° ESE daylight
15 May - 19:02:54 10° WNW 19:12:14 43° SW 19:21:22 10° SSE daylight
16 May - 10:18:21 10° SSW 10:27:04 38° SE 10:36:00 10° ENE visible
16 May - 12:21:14 10° WSW 12:31:12 90° SE 12:41:26 10° ENE daylight
16 May - 14:26:45 10° W 14:36:47 65° N 14:46:56 10° E daylight
16 May - 16:32:18 10° WNW 16:42:34 82° NNE 16:52:42 10° ESE daylight
16 May - 18:37:32 10° WNW 18:47:02 47° SW 18:56:22 10° SSE daylight
16 May - 20:47:27 10° WSW 20:49:52 11° WSW 20:52:18 10° SW daylight
17 May - 09:53:27 10° SSW 10:01:54 35° SE 10:10:35 10° ENE visible
17 May - 11:55:59 10° WSW 12:05:55 86° SSE 12:16:08 10° ENE daylight
17 May - 14:01:25 10° W 14:11:26 65° N 14:21:34 10° ENE daylight
17 May - 16:07:00 10° WNW 16:17:14 80° NNE 16:27:24 10° ESE daylight
17 May - 18:12:12 10° WNW 18:21:51 50° SW 18:31:19 10° SSE daylight
17 May - 20:20:48 10° W 20:24:48 13° WSW 20:28:45 10° SW daylight
18 May - 09:28:35 10° S 09:36:45 32° SE 09:45:09 10° ENE visible
18 May - 11:30:46 10° SW 11:40:38 82° SSE 11:50:49 10° ENE daylight
18 May - 13:36:05 10° W 13:46:04 66° N 13:56:14 10° ENE daylight
18 May - 15:41:43 10° WNW 15:51:54 77° NNE 16:02:05 10° ESE daylight
18 May - 17:46:53 10° WNW 17:56:38 54° SW 18:06:15 10° SSE daylight
18 May - 19:54:42 10° W 19:59:43 15° WSW 20:04:41 10° SSW daylight
19 May - 09:03:46 10° S 09:11:37 29° SE 09:19:42 10° ENE visible
19 May - 11:05:34 10° SW 11:15:22 79° SSE 11:25:31 10° ENE visible
19 May - 13:10:44 10° W 13:20:42 67° N 13:30:52 10° ENE daylight
19 May - 15:16:24 10° WNW 15:26:34 75° NNE 15:36:45 10° ESE daylight
19 May - 17:21:33 10° WNW 17:31:25 58° SW 17:41:10 10° SE daylight
19 May - 19:28:48 10° W 19:34:37 17° WSW 19:40:23 10° SSW daylight
